Year,Month,Day,Hour,Minute,Value (Times are PST for temperature in C)
2006,08,14,10,13,19.60
2006,08,14,10,14,19.70
2006,08,14,10,15,19.80
2006,08,14,10,16,19.80
2006,08,14,10,17,19.90
2006,08,14,10,18,19.90
2006,08,14,10,19,19.90
2006,08,14,10,20,20.10
2006,08,14,10,21,20.20
2006,08,14,10,22,20.20
2006,08,14,10,23,20.20
2006,08,14,10,24,20.10
2006,08,14,10,25,20.10
2006,08,14,10,26,20.10
2006,08,14,10,27,20.00
2006,08,14,10,28,19.90
2006,08,14,10,29,19.80
2006,08,14,10,30,19.70
2006,08,14,10,31,19.60
2006,08,14,10,32,19.60
2006,08,14,10,33,19.50
2006,08,14,10,34,19.40
2006,08,14,10,35,19.30
2006,08,14,10,36,19.40
2006,08,14,10,37,19.50
2006,08,14,10,38,19.50
2006,08,14,10,39,19.60
2006,08,14,10,40,19.60
2006,08,14,10,41,19.60
2006,08,14,10,42,19.70
2006,08,14,10,43,19.90
2006,08,14,10,44,19.90
2006,08,14,10,45,19.90
2006,08,14,10,46,19.90
2006,08,14,10,47,19.90
2006,08,14,10,48,20.10
2006,08,14,10,49,20.10
2006,08,14,10,50,20.10
2006,08,14,10,51,20.10
2006,08,14,10,52,20.10
2006,08,14,10,53,20.10
2006,08,14,10,54,20.10
2006,08,14,10,55,20.20
2006,08,14,10,56,20.20
2006,08,14,10,57,20.30
2006,08,14,10,58,20.30
2006,08,14,10,59,20.30
2006,08,14,11,00,20.30
2006,08,14,11,01,20.30
2006,08,14,11,02,20.30
2006,08,14,11,03,20.40
2006,08,14,11,04,20.30
2006,08,14,11,05,20.20
2006,08,14,11,06,20.10
2006,08,14,11,07,19.90
2006,08,14,11,08,19.80
2006,08,14,11,09,19.70
2006,08,14,11,10,19.60
2006,08,14,11,11,19.50
2006,08,14,11,12,19.40
2006,08,14,11,13,19.20
2006,08,14,11,14,19.10
2006,08,14,11,15,19.10
2006,08,14,11,16,19.10
2006,08,14,11,17,19.10
2006,08,14,11,18,19.00
2006,08,14,11,19,19.00
2006,08,14,11,20,19.10
2006,08,14,11,21,19.10
2006,08,14,11,22,19.10
2006,08,14,11,23,19.20
2006,08,14,11,24,19.30
2006,08,14,11,25,19.50
2006,08,14,11,26,19.50
2006,08,14,11,27,19.50
2006,08,14,11,28,19.40
2006,08,14,11,29,19.30
2006,08,14,11,30,19.40
2006,08,14,11,31,19.50
2006,08,14,11,32,19.60
2006,08,14,11,33,19.70
2006,08,14,11,34,19.80
2006,08,14,11,35,19.90
2006,08,14,11,36,19.90
2006,08,14,11,37,20.00
2006,08,14,11,38,20.00
2006,08,14,11,39,19.90
2006,08,14,11,40,19.90
2006,08,14,11,41,19.90
2006,08,14,11,42,20.00
2006,08,14,11,43,20.10
2006,08,14,11,44,20.10
2006,08,14,11,45,20.10
2006,08,14,11,46,20.00
2006,08,14,11,47,19.90
2006,08,14,11,48,19.90
2006,08,14,11,49,19.80
2006,08,14,11,50,19.80
2006,08,14,11,51,19.80
2006,08,14,11,52,19.80
2006,08,14,11,53,19.70
2006,08,14,11,54,19.60
2006,08,14,11,55,19.60
2006,08,14,11,56,19.50
2006,08,14,11,57,19.40
2006,08,14,11,58,19.30
2006,08,14,11,59,19.10
2006,08,14,12,00,18.90
2006,08,14,12,01,18.80
2006,08,14,12,02,18.80
2006,08,14,12,03,18.90
2006,08,14,12,04,18.90
2006,08,14,12,05,18.90
2006,08,14,12,06,19.00
2006,08,14,12,07,19.10
2006,08,14,12,08,19.10
2006,08,14,12,09,19.20
2006,08,14,12,10,19.40
2006,08,14,12,11,19.40
2006,08,14,12,12,19.40
2006,08,14,12,13,19.50
2006,08,14,12,14,19.60
2006,08,14,12,15,19.60
2006,08,14,12,16,19.50
2006,08,14,12,17,19.50
2006,08,14,12,18,19.40
2006,08,14,12,19,19.50
2006,08,14,12,20,19.60
2006,08,14,12,21,19.70
2006,08,14,12,22,19.90
2006,08,14,12,23,19.90
2006,08,14,12,24,20.20
2006,08,14,12,25,20.20
2006,08,14,12,26,20.20
2006,08,14,12,27,20.20
2006,08,14,12,28,20.20
2006,08,14,12,29,20.20
2006,08,14,12,30,20.30
2006,08,14,12,31,20.30
2006,08,14,12,32,20.20
2006,08,14,12,33,20.20
2006,08,14,12,34,20.20
2006,08,14,12,35,20.20
2006,08,14,12,36,20.20
2006,08,14,12,37,20.10
2006,08,14,12,38,20.10
2006,08,14,12,39,20.10
2006,08,14,12,40,20.20
2006,08,14,12,41,20.30
2006,08,14,12,42,20.30
2006,08,14,12,43,20.30
2006,08,14,12,44,20.30
2006,08,14,12,45,20.40
2006,08,14,12,46,20.60
2006,08,14,12,47,20.60
2006,08,14,12,48,20.70
2006,08,14,12,49,20.60
2006,08,14,12,50,20.50
2006,08,14,12,51,20.30
2006,08,14,12,52,20.30
2006,08,14,12,53,20.20
2006,08,14,12,54,20.20
2006,08,14,12,55,20.40
2006,08,14,12,56,20.50
2006,08,14,12,57,20.60
2006,08,14,12,58,20.60
2006,08,14,12,59,20.70
2006,08,14,13,00,20.70
2006,08,14,13,01,20.60
2006,08,14,13,02,20.60
2006,08,14,13,03,20.70
2006,08,14,13,04,20.80
2006,08,14,13,05,20.80
2006,08,14,13,06,20.60
2006,08,14,13,07,20.50
2006,08,14,13,08,20.30
2006,08,14,13,09,20.20
2006,08,14,13,10,20.20
2006,08,14,13,11,20.20
2006,08,14,13,12,20.20
2006,08,14,13,13,20.20
2006,08,14,13,14,20.20
2006,08,14,13,15,20.20
2006,08,14,13,16,20.20
2006,08,14,13,17,20.20
2006,08,14,13,18,20.20
2006,08,14,13,19,20.30
2006,08,14,13,20,20.40
2006,08,14,13,21,20.40
2006,08,14,13,22,20.40
2006,08,14,13,23,20.40
2006,08,14,13,24,20.40
2006,08,14,13,25,20.40
2006,08,14,13,26,20.50
2006,08,14,13,27,20.50
2006,08,14,13,28,20.40
2006,08,14,13,29,20.50
2006,08,14,13,30,20.50
2006,08,14,13,31,20.60
2006,08,14,13,32,20.60
2006,08,14,13,33,20.60
2006,08,14,13,34,20.60
2006,08,14,13,35,20.60
2006,08,14,13,36,20.60
2006,08,14,13,37,20.60
2006,08,14,13,38,20.70
2006,08,14,13,39,20.60
2006,08,14,13,40,20.40
2006,08,14,13,41,20.40
2006,08,14,13,42,20.40
2006,08,14,13,43,20.50
2006,08,14,13,44,20.40
2006,08,14,13,45,20.30
2006,08,14,13,46,20.30
2006,08,14,13,47,20.40
2006,08,14,13,48,20.60
2006,08,14,13,49,20.80
2006,08,14,13,50,20.90
2006,08,14,13,51,20.90
2006,08,14,13,52,20.90
2006,08,14,13,53,20.90
2006,08,14,13,54,20.90
2006,08,14,13,55,20.70
2006,08,14,13,56,20.60
2006,08,14,13,57,20.50
2006,08,14,13,58,20.50
2006,08,14,13,59,20.50
2006,08,14,14,00,20.40
2006,08,14,14,01,20.50
2006,08,14,14,02,20.60
2006,08,14,14,03,20.60
2006,08,14,14,04,20.70
2006,08,14,14,05,20.80
2006,08,14,14,06,20.80
2006,08,14,14,07,20.70
2006,08,14,14,08,20.70
2006,08,14,14,09,20.60
2006,08,14,14,10,20.70
2006,08,14,14,11,20.80
2006,08,14,14,12,20.70
2006,08,14,14,13,20.60
2006,08,14,14,14,20.60
2006,08,14,14,15,20.70
2006,08,14,14,16,20.70
2006,08,14,14,17,20.80
2006,08,14,14,18,20.80
2006,08,14,14,19,20.80
2006,08,14,14,20,20.90
2006,08,14,14,21,20.90
2006,08,14,14,22,20.90
2006,08,14,14,23,20.90
2006,08,14,14,24,21.00
2006,08,14,14,25,20.90
2006,08,14,14,26,20.80
2006,08,14,14,27,20.70
2006,08,14,14,28,20.60
2006,08,14,14,29,20.70
2006,08,14,14,30,20.70
2006,08,14,14,31,20.70
2006,08,14,14,32,20.80
2006,08,14,14,33,21.00
2006,08,14,14,34,21.20
2006,08,14,14,35,21.30
2006,08,14,14,36,21.40
2006,08,14,14,37,21.40
2006,08,14,14,38,21.40
2006,08,14,14,39,21.50
2006,08,14,14,40,21.60
2006,08,14,14,41,21.60
2006,08,14,14,42,21.60
2006,08,14,14,43,21.50
2006,08,14,14,44,21.40
2006,08,14,14,45,21.40
2006,08,14,14,46,21.30
2006,08,14,14,47,21.30
2006,08,14,14,48,21.40
2006,08,14,14,49,21.40
2006,08,14,14,50,21.40
2006,08,14,14,51,21.30
2006,08,14,14,52,21.20
2006,08,14,14,53,21.20
2006,08,14,14,54,21.20
2006,08,14,14,55,21.00
2006,08,14,14,56,20.90
2006,08,14,14,57,20.90
2006,08,14,14,58,20.80
2006,08,14,14,59,20.70
2006,08,14,15,00,20.60
2006,08,14,15,01,20.50
2006,08,14,15,02,20.40
2006,08,14,15,03,20.30
2006,08,14,15,04,20.30
2006,08,14,15,05,20.40
2006,08,14,15,06,20.50
2006,08,14,15,07,20.50
2006,08,14,15,08,20.50
2006,08,14,15,09,20.60
2006,08,14,15,10,20.70
2006,08,14,15,11,20.60
2006,08,14,15,12,20.60
2006,08,14,15,13,20.60
2006,08,14,15,14,20.50
2006,08,14,15,15,20.50
2006,08,14,15,16,20.50
2006,08,14,15,17,20.40
2006,08,14,15,18,20.40
2006,08,14,15,19,20.40
2006,08,14,15,20,20.30
2006,08,14,15,21,20.30
2006,08,14,15,22,20.30
2006,08,14,15,23,20.30
2006,08,14,15,24,20.40
2006,08,14,15,25,20.50
2006,08,14,15,26,20.60
2006,08,14,15,27,20.70
2006,08,14,15,28,20.70
2006,08,14,15,29,20.70
2006,08,14,15,30,20.80
2006,08,14,15,31,20.80
2006,08,14,15,32,20.90
2006,08,14,15,33,20.90
2006,08,14,15,34,21.00
2006,08,14,15,35,21.00
2006,08,14,15,36,20.90
2006,08,14,15,37,20.90
2006,08,14,15,38,21.00
2006,08,14,15,39,21.10
2006,08,14,15,40,21.00
2006,08,14,15,41,20.90
2006,08,14,15,42,20.90
2006,08,14,15,43,21.00
2006,08,14,15,44,20.90
2006,08,14,15,45,20.70
2006,08,14,15,46,20.60
2006,08,14,15,47,20.70
2006,08,14,15,48,20.60
2006,08,14,15,49,20.60
2006,08,14,15,50,20.60
2006,08,14,15,51,20.60
2006,08,14,15,52,20.70
2006,08,14,15,53,20.70
2006,08,14,15,54,20.90
2006,08,14,15,55,20.90
2006,08,14,15,56,20.90
2006,08,14,15,57,20.90
2006,08,14,15,58,20.90
2006,08,14,15,59,21.10
2006,08,14,16,00,21.20
2006,08,14,16,01,21.10
2006,08,14,16,02,21.10
2006,08,14,16,03,21.10
2006,08,14,16,04,21.10
2006,08,14,16,05,21.20
2006,08,14,16,06,21.10
2006,08,14,16,07,21.00
2006,08,14,16,08,20.80
2006,08,14,16,09,20.50
2006,08,14,16,10,20.20
2006,08,14,16,11,20.00
2006,08,14,16,12,19.80
2006,08,14,16,13,19.60
2006,08,14,16,14,19.20
2006,08,14,16,15,19.00
2006,08,14,16,16,18.90
2006,08,14,16,17,18.60
2006,08,14,16,18,18.50
2006,08,14,16,19,18.40
2006,08,14,16,20,18.30
2006,08,14,16,21,18.20
2006,08,14,16,22,18.00
2006,08,14,16,23,17.80
2006,08,14,16,24,17.80
2006,08,14,16,25,17.80
2006,08,14,16,26,17.70
2006,08,14,16,27,17.70
2006,08,14,16,28,17.70
2006,08,14,16,29,17.60
2006,08,14,16,30,17.60
2006,08,14,16,31,17.60
2006,08,14,16,32,17.70
2006,08,14,16,33,17.70
2006,08,14,16,34,17.80
2006,08,14,16,35,17.90
2006,08,14,16,36,17.90
2006,08,14,16,37,17.90
2006,08,14,16,38,18.00
2006,08,14,16,39,18.10
2006,08,14,16,40,18.20
2006,08,14,16,41,18.20
2006,08,14,16,42,18.10
2006,08,14,16,43,18.10
2006,08,14,16,44,18.20
2006,08,14,16,45,18.30
2006,08,14,16,46,18.40
2006,08,14,16,47,18.40
2006,08,14,16,48,18.50
2006,08,14,16,49,18.50
2006,08,14,16,50,18.50
2006,08,14,16,51,18.50
2006,08,14,16,52,18.60
2006,08,14,16,53,18.70
2006,08,14,16,54,18.90
2006,08,14,16,55,19.00
2006,08,14,16,56,19.10
2006,08,14,16,57,19.10
2006,08,14,16,58,19.10
2006,08,14,16,59,19.20
2006,08,14,17,00,19.30
2006,08,14,17,01,19.40
2006,08,14,17,02,19.60
2006,08,14,17,03,19.80
2006,08,14,17,04,19.90
2006,08,14,17,05,20.00
2006,08,14,17,06,20.20
2006,08,14,17,07,20.20
2006,08,14,17,08,20.30
2006,08,14,17,09,20.40
2006,08,14,17,10,20.50
2006,08,14,17,11,20.60
2006,08,14,17,12,20.60
2006,08,14,17,13,20.70
2006,08,14,17,14,20.70
2006,08,14,17,15,20.90
2006,08,14,17,16,21.00
2006,08,14,17,17,21.10
2006,08,14,17,18,21.20
2006,08,14,17,19,21.20
2006,08,14,17,20,21.10
2006,08,14,17,21,21.00
2006,08,14,17,22,20.90
2006,08,14,17,23,20.90
2006,08,14,17,24,20.80
2006,08,14,17,25,20.80
2006,08,14,17,26,20.70
2006,08,14,17,27,20.60
2006,08,14,17,28,20.50
2006,08,14,17,29,20.50
2006,08,14,17,30,20.40
2006,08,14,17,31,20.40
2006,08,14,17,32,20.40
2006,08,14,17,33,20.50
2006,08,14,17,34,20.50
2006,08,14,17,35,20.60
2006,08,14,17,36,20.70
2006,08,14,17,37,20.70
2006,08,14,17,38,20.90
2006,08,14,17,39,21.00
2006,08,14,17,40,21.20
2006,08,14,17,41,21.30
2006,08,14,17,42,21.40
2006,08,14,17,43,21.50
2006,08,14,17,44,21.60
2006,08,14,17,45,21.60
2006,08,14,17,46,21.60
2006,08,14,17,47,21.60
2006,08,14,17,48,21.60
2006,08,14,17,49,21.60
2006,08,14,17,50,21.70
2006,08,14,17,51,21.80
2006,08,14,17,52,21.80
2006,08,14,17,53,21.90
2006,08,14,17,54,21.90
2006,08,14,17,55,21.90
2006,08,14,17,56,22.00
2006,08,14,17,57,22.10
2006,08,14,17,58,22.20
2006,08,14,17,59,22.30
2006,08,14,18,00,22.40
2006,08,14,18,01,22.50
2006,08,14,18,02,22.70
2006,08,14,18,03,22.70
2006,08,14,18,04,22.90
2006,08,14,18,05,22.90
2006,08,14,18,06,23.00
2006,08,14,18,07,23.30
2006,08,14,18,08,23.30
2006,08,14,18,09,23.40
2006,08,14,18,10,23.50
2006,08,14,18,11,23.60
2006,08,14,18,12,23.70
2006,08,14,18,13,23.80
2006,08,14,18,14,23.90
2006,08,14,18,15,24.00
2006,08,14,18,16,24.10
2006,08,14,18,17,24.10
2006,08,14,18,18,24.10
2006,08,14,18,19,24.10
2006,08,14,18,20,24.10
2006,08,14,18,21,24.20
2006,08,14,18,22,24.20
2006,08,14,18,23,24.20
2006,08,14,18,24,24.30
2006,08,14,18,25,24.30
2006,08,14,18,26,24.30
2006,08,14,18,27,24.30
2006,08,14,18,28,24.30
2006,08,14,18,29,24.30
2006,08,14,18,30,24.30
2006,08,14,18,31,24.30
2006,08,14,18,32,24.30
2006,08,14,18,33,24.30
2006,08,14,18,34,24.30
2006,08,14,18,35,24.30
2006,08,14,18,36,24.30
2006,08,14,18,37,24.20
2006,08,14,18,38,24.20
2006,08,14,18,39,24.20
2006,08,14,18,40,24.20
2006,08,14,18,41,24.10
2006,08,14,18,42,24.10
2006,08,14,18,43,24.10
2006,08,14,18,44,24.10
2006,08,14,18,45,24.10
2006,08,14,18,46,24.10
2006,08,14,18,47,24.10
2006,08,14,18,48,24.10
2006,08,14,18,49,24.10
2006,08,14,18,50,24.10
2006,08,14,18,51,24.10
2006,08,14,18,52,24.10
2006,08,14,18,53,24.10
2006,08,14,18,54,24.00
2006,08,14,18,55,23.90
2006,08,14,18,56,23.90
2006,08,14,18,57,23.80
2006,08,14,18,58,23.90
2006,08,14,18,59,23.80
2006,08,14,19,00,23.80
2006,08,14,19,01,23.80
2006,08,14,19,02,23.80
2006,08,14,19,03,23.80
2006,08,14,19,04,23.80
2006,08,14,19,05,23.80
2006,08,14,19,06,23.80
2006,08,14,19,07,23.70
2006,08,14,19,08,23.70
2006,08,14,19,09,23.70
2006,08,14,19,10,23.70
2006,08,14,19,11,23.70
2006,08,14,19,12,23.70
2006,08,14,19,13,23.70
2006,08,14,19,14,23.70
2006,08,14,19,15,23.70
2006,08,14,19,16,23.70
2006,08,14,19,17,23.70
2006,08,14,19,18,23.70
2006,08,14,19,19,23.70
2006,08,14,19,20,23.70
2006,08,14,19,21,23.70
2006,08,14,19,22,23.70
2006,08,14,19,23,23.60
2006,08,14,19,24,23.60
2006,08,14,19,25,23.60
2006,08,14,19,26,23.60
2006,08,14,19,27,23.60
2006,08,14,19,28,23.60
2006,08,14,19,29,23.60
2006,08,14,19,30,23.60
2006,08,14,19,31,23.60
2006,08,14,19,32,23.60
2006,08,14,19,33,23.60
2006,08,14,19,34,23.60
2006,08,14,19,35,23.60
2006,08,14,19,36,23.60
2006,08,14,19,37,23.60
2006,08,14,19,38,23.60
2006,08,14,19,39,23.40
2006,08,14,19,40,23.30
2006,08,14,19,41,23.30
2006,08,14,19,42,23.30
2006,08,14,19,43,23.20
2006,08,14,19,44,23.20
2006,08,14,19,45,23.10
2006,08,14,19,46,23.10
2006,08,14,19,47,23.00
2006,08,14,19,48,22.90
2006,08,14,19,49,22.90
2006,08,14,19,50,22.90
2006,08,14,19,51,22.80
2006,08,14,19,52,22.80
2006,08,14,19,53,22.80
2006,08,14,19,54,22.70
2006,08,14,19,55,22.70
2006,08,14,19,56,22.70
2006,08,14,19,57,22.60
2006,08,14,19,58,22.60
2006,08,14,19,59,22.60
2006,08,14,20,00,22.50
2006,08,14,20,01,22.50
2006,08,14,20,02,22.50
2006,08,14,20,03,22.50
2006,08,14,20,04,22.50
2006,08,14,20,05,22.50
2006,08,14,20,06,22.40
2006,08,14,20,07,22.40
2006,08,14,20,08,22.40
2006,08,14,20,09,22.30
2006,08,14,20,10,22.20
2006,08,14,20,11,22.10
2006,08,14,20,12,22.00
2006,08,14,20,13,21.90
2006,08,14,20,14,21.70
2006,08,14,20,15,21.60
2006,08,14,20,16,21.60
2006,08,14,20,17,21.40
2006,08,14,20,18,21.30
2006,08,14,20,19,21.30
2006,08,14,20,20,21.20
2006,08,14,20,21,21.10
2006,08,14,20,22,21.10
2006,08,14,20,23,21.00
2006,08,14,20,24,20.90
2006,08,14,20,25,20.90
2006,08,14,20,26,20.80
2006,08,14,20,27,20.80
2006,08,14,20,28,20.80
2006,08,14,20,29,20.70
2006,08,14,20,30,20.70
2006,08,14,20,31,20.70
2006,08,14,20,32,20.60
2006,08,14,20,33,20.60
2006,08,14,20,34,20.50
2006,08,14,20,35,20.50
2006,08,14,20,36,20.40
2006,08,14,20,37,20.30
2006,08,14,20,38,20.20
2006,08,14,20,39,20.10
2006,08,14,20,40,20.00
2006,08,14,20,41,19.90
2006,08,14,20,42,19.90
2006,08,14,20,43,19.90
2006,08,14,20,44,19.80
2006,08,14,20,45,19.80
2006,08,14,20,46,19.70
2006,08,14,20,47,19.60
2006,08,14,20,48,19.50
2006,08,14,20,49,19.50
2006,08,14,20,50,19.40
2006,08,14,20,51,19.40
2006,08,14,20,52,19.30
2006,08,14,20,53,19.30
2006,08,14,20,54,19.20
2006,08,14,20,55,19.20
2006,08,14,20,56,19.20
2006,08,14,20,57,19.10
2006,08,14,20,58,19.10
2006,08,14,20,59,19.10
2006,08,14,21,00,19.10
2006,08,14,21,01,19.10
2006,08,14,21,02,19.10
2006,08,14,21,03,19.00
2006,08,14,21,04,18.90
2006,08,14,21,05,18.90
2006,08,14,21,06,18.90
2006,08,14,21,07,18.90
2006,08,14,21,08,18.80
2006,08,14,21,09,18.80
2006,08,14,21,10,18.70
2006,08,14,21,11,18.60
2006,08,14,21,12,18.50
2006,08,14,21,13,18.30
2006,08,14,21,14,18.10
2006,08,14,21,15,18.00
2006,08,14,21,16,17.90
2006,08,14,21,17,17.80
2006,08,14,21,18,17.70
2006,08,14,21,19,17.70
2006,08,14,21,20,17.60
2006,08,14,21,21,17.60
2006,08,14,21,22,17.60
2006,08,14,21,23,17.50
2006,08,14,21,24,17.50
2006,08,14,21,25,17.50
2006,08,14,21,26,17.50
2006,08,14,21,27,17.40
2006,08,14,21,28,17.40
2006,08,14,21,29,17.40
2006,08,14,21,30,17.40
2006,08,14,21,31,17.30
2006,08,14,21,32,17.30
2006,08,14,21,33,17.30
2006,08,14,21,34,17.30
2006,08,14,21,35,17.30
2006,08,14,21,36,17.30
2006,08,14,21,37,17.20
2006,08,14,21,38,17.20
2006,08,14,21,39,17.10
2006,08,14,21,40,17.10
2006,08,14,21,41,17.10
2006,08,14,21,42,17.10
2006,08,14,21,43,17.10
2006,08,14,21,44,17.10
2006,08,14,21,45,17.00
2006,08,14,21,46,17.00
2006,08,14,21,47,17.00
2006,08,14,21,48,17.00
2006,08,14,21,49,17.00
2006,08,14,21,50,17.00
2006,08,14,21,51,17.00
2006,08,14,21,52,17.00
2006,08,14,21,53,16.90
2006,08,14,21,54,16.90
2006,08,14,21,55,16.90
2006,08,14,21,56,16.90
2006,08,14,21,57,16.90
2006,08,14,21,58,16.90
2006,08,14,21,59,16.90
2006,08,14,22,00,16.80
2006,08,14,22,01,16.80
2006,08,14,22,02,16.80
2006,08,14,22,03,16.70
2006,08,14,22,04,16.70
2006,08,14,22,05,16.70
2006,08,14,22,06,16.60
2006,08,14,22,07,16.60
2006,08,14,22,08,16.60
2006,08,14,22,09,16.60
2006,08,14,22,10,16.40
2006,08,14,22,11,16.40
2006,08,14,22,12,16.40
2006,08,14,22,13,16.30
2006,08,14,22,14,16.30
2006,08,14,22,15,16.30
2006,08,14,22,16,16.20
2006,08,14,22,17,16.20
2006,08,14,22,18,16.20
2006,08,14,22,19,16.20
2006,08,14,22,20,16.20
2006,08,14,22,21,16.20
2006,08,14,22,22,16.20
2006,08,14,22,23,16.20
2006,08,14,22,24,16.20
2006,08,14,22,25,16.20
2006,08,14,22,26,16.20
2006,08,14,22,27,16.20
2006,08,14,22,28,16.20
2006,08,14,22,29,16.20
2006,08,14,22,30,16.20
2006,08,14,22,31,16.20
2006,08,14,22,32,16.10
2006,08,14,22,33,16.10
2006,08,14,22,34,16.10
2006,08,14,22,35,16.10
2006,08,14,22,36,16.10
2006,08,14,22,37,16.00
2006,08,14,22,38,15.90
2006,08,14,22,39,15.80
2006,08,14,22,40,15.80
2006,08,14,22,41,15.80
2006,08,14,22,42,15.80
2006,08,14,22,43,15.80
2006,08,14,22,44,15.70
2006,08,14,22,45,15.70
2006,08,14,22,46,15.70
2006,08,14,22,47,15.70
2006,08,14,22,48,15.70
2006,08,14,22,49,15.70
2006,08,14,22,50,15.70
2006,08,14,22,51,15.60
2006,08,14,22,52,15.60
2006,08,14,22,53,15.60
2006,08,14,22,54,15.60
2006,08,14,22,55,15.60
2006,08,14,22,56,15.70
2006,08,14,22,57,15.70
2006,08,14,22,58,15.70
2006,08,14,22,59,15.60
2006,08,14,23,00,15.60
2006,08,14,23,01,15.60
2006,08,14,23,02,15.50
2006,08,14,23,03,15.50
2006,08,14,23,04,15.50
2006,08,14,23,05,15.50
2006,08,14,23,06,15.50
2006,08,14,23,07,15.40
2006,08,14,23,08,15.40
2006,08,14,23,09,15.40
2006,08,14,23,10,15.40
2006,08,14,23,11,15.30
2006,08,14,23,12,15.30
2006,08,14,23,13,15.30
2006,08,14,23,14,15.30
2006,08,14,23,15,15.30
2006,08,14,23,16,15.30
2006,08,14,23,17,15.30
2006,08,14,23,18,15.40
2006,08,14,23,19,15.40
2006,08,14,23,20,15.40
2006,08,14,23,21,15.40
2006,08,14,23,22,15.40
2006,08,14,23,23,15.40
2006,08,14,23,24,15.40
2006,08,14,23,25,15.40
2006,08,14,23,26,15.40
2006,08,14,23,27,15.30
2006,08,14,23,28,15.30
2006,08,14,23,29,15.30
2006,08,14,23,30,15.30
2006,08,14,23,31,15.30
2006,08,14,23,32,15.30
2006,08,14,23,33,15.30
2006,08,14,23,34,15.30
2006,08,14,23,35,15.30
2006,08,14,23,36,15.30
2006,08,14,23,37,15.30
2006,08,14,23,38,15.30
2006,08,14,23,39,15.30
2006,08,14,23,40,15.30
2006,08,14,23,41,15.30
2006,08,14,23,42,15.30
2006,08,14,23,43,15.30
2006,08,14,23,44,15.30
2006,08,14,23,45,15.30
2006,08,14,23,46,15.30
2006,08,14,23,47,15.30
2006,08,14,23,48,15.20
2006,08,14,23,49,15.20
2006,08,14,23,50,15.20
2006,08,14,23,51,15.20
2006,08,14,23,52,15.20
2006,08,14,23,53,15.20
2006,08,14,23,54,15.10
2006,08,14,23,55,15.10
2006,08,14,23,56,15.10
2006,08,14,23,57,15.10
2006,08,14,23,58,15.10
2006,08,14,23,59,15.10
